This demonstration page uses our WeatherBlox Daily Observations layout. Learn more.

Left ArrowRight Arrow

44.8408, -93.29828

Hourly Observations for July 10, 2019

Temp ( °F °C ) Dew Point ( °F °C ) Humidity (%) Winds ( mph kmh ) Pressure ( in mb ) Visibility ( mi km ) Precip ( " mm )
12:53 am 00:53 Clear 75 23.9 70 21.1 84 84 WSW 8 13 29.79 1009 10 16 0.00 0.00
1:53 am 01:53 Clear 74 23.3 68 20 82 82 WSW 9 15 29.79 1009 10 16 0.00 0.00
2:53 am 02:53 Clear 73 22.8 68 20 84 84 SSW 8 13 29.80 1009 10 16 0.00 0.00
3:53 am 03:53 Clear 73 22.8 66 18.9 79 79 WSW 9 15 29.79 1009 10 16 0.00 0.00
4:53 am 04:53 Clear 72 22.2 63 17.2 73 73 SW 9 15 29.79 1009 10 16 0.00 0.00
5:53 am 05:53 Sunny 70 21.1 62 16.7 76 76 WSW 7 11 29.80 1009 10 16 0.00 0.00
6:53 am 06:53 Mostly Sunny 71 21.7 61 16.1 71 71 WSW 12 19 29.79 1009 10 16 0.00 0.00
7:53 am 07:53 Mostly Sunny 71 21.7 59 15 66 66 WSW 14 22 29.81 1009 10 16 0.00 0.00
8:53 am 08:53 Mostly Cloudy 71 21.7 57 13.9 61 61 WSW 15 24 29.82 1010 10 16 0.00 0.00
9:27 am 09:27 Cloudy 70 21.1 57 13.9 64 64 W 18 30 29.80 1009 10 16 0.00 0.00
9:53 am 09:53 Cloudy 70 21.1 58 14.4 66 66 WSW 14 22 29.83 1010 10 16 0.00 0.00
10:22 am 10:22 Cloudy 71 21.7 58 14.4 63 63 SW 12 19 29.80 1009 10 16 0.00 0.00
10:33 am 10:33 Cloudy 70 21.1 58 14.4 66 66 SW 16 26 29.80 1009 10 16 0.00 0.00
10:53 am 10:53 Cloudy 70 21.1 59 15 68 68 SW 12 19 29.82 1010 10 16 0.00 0.00
11:53 am 11:53 Cloudy 70 21.1 59 15 68 68 SW 13 20 29.82 1010 10 16 0.00 0.00
12:02 pm 12:02 Cloudy 71 21.7 59 15 66 66 SW 13 20 29.80 1009 10 16 0.00 0.00
12:53 pm 12:53 Cloudy with Light Rain 69 20.6 63 17.2 81 81 SW 13 20 29.82 1010 8 13 0.00 0.03
1:53 pm 13:53 Cloudy with Light Rain 71 21.7 65 18.3 81 81 W 10 17 29.82 1010 7 11 0.00 0.03
2:53 pm 14:53 Mostly Cloudy 77 25 63 17.2 62 62 WNW 14 22 29.80 1009 10 16 0.00 0.03
3:53 pm 15:53 Mostly Cloudy 76 24.4 64 17.8 67 67 WNW 10 17 29.82 1010 10 16 0.00 0.03
4:14 pm 16:14 Mostly Cloudy with Heavy Rain 72 22.2 68 20 87 87 W 13 20 29.82 1010 2 3 0.07 1.78
4:22 pm 16:22 Cloudy with Heavy Rain 71 21.7 67 19.4 87 87 WNW 6 9 29.82 1010 2 2 0.14 3.56
4:28 pm 16:28 Cloudy with Heavy Rain 71 21.7 68 20 90 90 W 7 11 29.82 1010 7 11 0.21 5.33
4:53 pm 16:53 Mostly Cloudy 75 23.9 68 20 79 79 WNW 8 13 29.83 1010 10 16 0.22 5.59
5:53 pm 17:53 Mostly Cloudy 74 23.3 66 18.9 76 76 WNW 9 15 29.84 1011 10 16 0.00 0.03
6:53 pm 18:53 Partly Cloudy 75 23.9 66 18.9 74 74 WNW 13 20 29.85 1011 10 16 0.00 0.00
7:53 pm 19:53 Partly Cloudy 75 23.9 67 19.4 76 76 WNW 12 19 29.87 1012 10 16 0.00 0.00
8:53 pm 20:53 Partly Cloudy 73 22.8 65 18.3 76 76 NW 6 9 29.88 1012 10 16 0.00 0.00
9:53 pm 21:53 Partly Cloudy 74 23.3 63 17.2 69 69 NNW 10 17 29.92 1013 10 16 0.00 0.00
10:53 pm 22:53 Mostly Clear 72 22.2 64 17.8 76 76 NNW 10 17 29.93 1014 10 16 0.00 0.00
11:53 pm 23:53 Mostly Clear 71 21.7 64 17.8 79 79 NNW 10 17 29.95 1014 10 16 0.00 0.00

Powered by AerisWeather